Regional Weather Roundup
Issued by NWS

Home | Current Version | Previous Version | Text Only | Print | Product List | Glossary On
Versions: 1 2 3 4 5 6 7 8 9 10 11 12 13 14 15 16 17 18 19 20 21 22 23 24 25 26 27 28 29 30 31 32 33 34 35 36 37 38 39 40 41 42 43 44 45 46 47 48 49 50
274
ASCA44 KEWX 070420
RWRMX

LATIN AMERICA AND CARIBBEAN REGIONAL WEATHER ROUNDUP
NATIONAL WEATHER SERVICE AUSTIN/SAN ANTONIO TX
1000 PM CST SAT FEB 06 2016

NOTE: "FAIR" INDICATED FEW OR NO CLOUDS BELOW 12,000 FEET WITH NO
SIGNIFICANT WEATHER AND/OR OBSTRUCTIONS TO VISIBILITY.

BAJA CALIFORNIA

CITY           SKY/WX    TMP DP  RH WIND       PRES   REMARKS
LA PAZ         MOCLDY    68  46  45 CALM      30.07S
MEXICALI       CLEAR     59  23  25 W7        30.21S
TIJUANA        CLEAR     66  12  12 E15       30.17R

NORTHWESTERN MEXICO

CITY           SKY/WX    TMP DP  RH WIND       PRES   REMARKS
CULIACAN       CLOUDY    70  59  68 N7        30.01R
HERMOSILLO     MOCLDY    63  32  31 CALM      30.09R
CD. JUAREZ     PTCLDY    41  18  38 CALM      30.34S
LOS MOCHIS     CLOUDY    63  54  72 NW12      30.04R

NORTHEASTERN MEXICO

CITY           SKY/WX    TMP DP  RH WIND       PRES   REMARKS
CHIHUAHUA      CLEAR     39   7  26 SW8       30.38R WCI  34
MONCLOVA         N/A    N/A N/A N/A MISG        N/A
MONTERREY      CLEAR     57  12  17 S8        30.38S
SALTILLO         N/A    N/A N/A N/A MISG        N/A

WESTERN MEXICO

CITY           SKY/WX    TMP DP  RH WIND       PRES   REMARKS
DEL BAJIO      PTCLDY    54  18  24 NE6       30.41S
GUADALAJARA    MOCLDY    64  27  24 NE6       30.27R
MAZATLAN       MOCLDY    66  55  68 W6        29.96R
P. VALLARTA    MOCLDY    72  68  88 N3        29.95R
ZACATECAS      CLEAR     41   1  19 CALM      30.43R

CENTRAL MEXICO

CITY           SKY/WX    TMP DP  RH WIND       PRES   REMARKS
MEXICO CITY    CLEAR     52  36  54 NW12      30.48R
MORELIA        CLEAR     57  37  47 NE16      30.33R
QUERETARO      CLEAR     43  30  61 E7        30.48R WCI  39
S. LUIS POTOSI CLEAR     46  32  57 E5        30.44R WCI  44
TAMPICO        PTCLDY    63  52  67 E12       30.37S
TOLUCA         PTCLDY    50  28  43 NE7       30.48R WCI  47

SOUTHERN MEXICO

CITY           SKY/WX    TMP DP  RH WIND       PRES   REMARKS
ACAPULCO       PTCLDY    81  73  78 E2        29.95R
B. DE HUATULCO   N/A    N/A N/A N/A MISG        N/A
VERACRUZ       CLOUDY    70  57  64 N14       30.34R
ZIHUATANEJO      N/A    N/A N/A N/A MISG        N/A

YUCATAN PENINSULA

CITY           SKY/WX    TMP DP  RH WIND       PRES   REMARKS
CAMPECHE       PTCLDY    66  63  88 N6        30.22S
CANCUN         LGT RAIN  68  66  94 N5        30.16R
CHETUMAL       RAIN      68  64  88 CALM      30.19S
COZUMEL        MOCLDY    66  64  94 N17       30.16S
MERIDA         PTCLDY    66  57  72 NW5       30.23R
TAPACHULA      CLEAR     79  70  73 NE12      29.94R
TUX. GUTIERREZ PTCLDY    64  55  72 NW17      30.20R
VILLAHERMOSA   MOCLDY    66  66 100 CALM      30.30

CENTRAL AMERICA

CITY           SKY/WX    TMP DP  RH WIND       PRES   REMARKS
MANAGUA        PTCLDY    79  64  61 E7        29.92S

CARIBBEAN

CITY           SKY/WX    TMP DP  RH WIND       PRES   REMARKS
ARUBA          PTCLDY    81  73  78 E22       29.92S
CURACAO        PTCLDY    79  73  83 SE15      29.94S
KINGSTON       PTCLDY    79  70  73 N6        30.00R
SAN JUAN       LGT RAIN  73  72  94 CALM      30.09F FOG
SANTO DOMINGO  PTCLDY    75  70  83 CALM      30.03S
ST. CROIX      CLOUDY    81  72  74 E12       30.09
ST. MAARTEN    PTCLDY    79  72  78 E15       30.09S
ST. THOMAS     LGT RAIN  73  70  88 E25G37    30.08

$$





USA.gov is the U.S. government's official web portal to all federal, state and local government web resources and services.